SCP
0 0 -0 0 0 -0 0 0 -0 0 -0 -0 -0 -0 0 0 -0 -0 0 0 -0 0 -0 -0 -0 -0 -0 -0 -0 -0 -0 -0
0 0 0 0 0 0 0 -0 -0 0 -0 -0 -0 -0 -0 0 -0 0 0 -0 -0 -0 -0 -0 -0 -0 -0 -0 -0 -0 -0 0
0 0 0 0 0 -0 0 0 -0 -0 0 -0 0 -0 0 -0 0 0 0 0 -0 -0 -0 -0 -0 -0 0 0 0 0 0 0
0 0 0 0 0 0 0 -0 -0 0 0 0 0 0 0 0 0 0 -0 0 0 0 0 0 0 0 0 0 0 0 0 0
0 0 0 0 -0 0 -0 -0 -0 0 0 0 1 0 -0 -0 0 0 0 0 0 0 0 0 0 0 0 0 0 0 0 0
0 0 0 0 -0 0 0 0 -0 0 1 -0 -0 -0 -0 0 0 0 0 0 0 0 0 0 0 0 0 0 0 0 0 0
0 0 0 0 -0 0 0 0 -0 0 0 -0 0 -0 -0 0 0 0 0 0 0 0 0 0 1 0 0 0 0 0 0 0
0 0 0 0 0 0 0 0 0 0 0 0 -0 -0 0 0 0 -0 -0 0 0 0 0 0 0 0 0 0 0 0 0 0
0 0 0 0 0 0 0 0 0 0 -0 0 -0 -0 0 0 0 0 0 0 0 0 0 0 0 0 0 1 1 0 0 0
0 0 0 0 0 0 0 0 0 0 0 0 -0 -0 0 0 0 0 0 0 0 0 0 0 0 0 0 0 1 0 0 0
0 0 0 0 0 0 0 0 0 0 0 0 -0 -0 -0 -0 -0 0 0 0 0 0 -0 0 0 0 0 0 0 0 0 0
0 0 0 0 0 0 0 0 0 0 0 0 0 0 0 0 0 0 0 0 0 -0 0 0 0 0 0 0 0 0 0 0
0 0 0 0 0 0 0 0 0 0 0 0 0 0 -0 0 -0 0 0 0 0 0 0 0 0 0 0 0 0 0 0 0
-0 0 0 0 0 0 0 0 0 0 0 0 0 0 0 0 -0 -0 0 -0 0 0 0 0 0 0 0 0 0 0 0 0
0 -0 0 0 0 0 0 0 0 0 0 0 0 0 0 0 0 0 0 -0 -0 0 0 0 0 0 0 0 0 0 0 0
0 0 0 0 0 0 0 0 0 0 0 0 0 0 0 0 0 0 0 0 0 0 0 0 0 1 1 0 0 0 0 0
0 0 0 0 0 0 0 0 0 0 0 0 0 0 0 0 0 0 0 0 1 1 1 1 1 1 1 1 0 0 0 0
0 0 0 0 0 0 0 0 0 0 0 0 0 0 0 0 0 0 0 0 0 1 1 1 2 1 0 1 0 0 0 -0
0 0 0 0 0 0 0 0 0 0 0 0 0 0 0 0 0 0 0 0 0 2 2 2 2 1 0 0 0 0 0 -0
0 0 0 0 -0 0 0 0 0 0 0 0 0 0 0 0 0 0 0 0 0 1 2 2 2 1 1 0 1 0 0 0
Wind_Speed_500mb
7 7 9 9 9 11 42 59 21 21 12 17 16 16 10 19 31 50 45 42 46 48 46 44 42 41 38 36 35 34 33 31
7 10 16 9 19 43 35 23 12 42 13 15 24 22 8 16 23 43 43 43 47 49 45 41 39 39 38 34 31 29 28 27
5 12 10 12 31 44 11 18 31 21 16 14 14 17 20 30 33 43 43 42 44 45 44 40 37 36 35 33 28 24 22 21
6 10 13 16 39 10 26 39 22 17 23 16 13 42 38 40 31 47 45 44 44 43 41 41 38 36 34 32 28 23 20 17
7 10 16 11 26 10 35 32 17 53 12 10 30 47 32 30 32 42 40 42 44 44 44 41 40 38 33 31 28 23 19 17
4 3 13 20 7 16 23 15 53 47 15 17 69 49 19 40 42 43 37 39 42 44 41 40 40 39 37 34 31 27 22 19
9 4 12 47 13 8 35 49 20 20 53 78 76 48 64 54 56 50 44 48 48 42 40 39 38 38 34 32 29 28 25 23
16 10 13 31 14 35 8 31 30 50 54 70 69 48 61 63 69 63 59 59 52 49 46 43 37 31 27 24 27 25 24 24
42 58 31 17 17 30 5 9 27 54 83 84 75 63 71 74 66 37 65 65 60 51 48 43 36 31 32 27 26 21 23 22
56 56 18 8 10 13 15 9 8 32 51 75 72 60 75 78 62 59 66 69 51 53 51 49 31 38 28 24 21 20 20 24
70 58 25 10 8 6 22 19 13 30 64 59 53 50 47 45 37 72 72 61 55 60 58 38 19 40 21 26 33 23 24 24
27 14 13 9 10 7 18 29 21 7 49 54 53 50 41 33 34 45 61 52 58 48 55 35 38 39 31 32 31 32 28 28
11 5 4 16 16 9 27 28 33 30 27 34 34 37 44 22 30 34 43 43 53 56 55 47 45 50 44 36 41 46 26 24
14 10 16 9 23 25 38 22 27 37 35 39 32 31 33 41 22 33 35 53 49 54 59 50 51 40 35 38 36 37 24 25
22 12 12 12 22 30 52 37 36 39 43 44 38 36 40 38 52 42 37 40 52 50 58 50 47 42 31 22 24 25 24 22
14 25 4 24 37 19 25 28 38 40 45 53 47 43 50 52 57 62 53 44 45 48 55 57 48 39 29 21 24 20 19 20
12 13 5 8 11 15 39 24 24 30 38 51 53 50 53 56 66 65 64 62 59 62 57 63 59 46 32 31 28 25 23 21
13 13 3 14 14 15 14 22 49 44 42 54 61 60 61 63 59 69 72 71 67 67 67 62 58 52 33 32 34 25 21 19
14 11 7 3 12 7 13 11 31 38 48 56 60 67 63 72 74 70 81 78 73 70 69 61 54 50 40 46 45 45 37 32
7 8 6 6 10 11 10 19 15 53 66 67 68 69 86 72 76 77 82 80 74 68 64 65 61 56 54 59 58 48 45 40
Wind_Direction_500mb
90 114 172 215 252 85 151 148 167 127 144 143 162 178 116 169 164 168 171 175 175 179 173 166 159 158 156 152 148 143 137 136
92 237 247 231 284 285 165 222 193 145 116 125 154 149 22 180 167 173 175 179 179 180 179 172 165 162 161 159 156 149 143 138
329 270 284 266 279 269 95 126 159 144 148 133 121 152 166 157 168 177 183 182 181 181 179 176 174 169 166 166 163 154 147 140
267 286 285 288 293 304 116 149 162 107 120 113 115 154 162 166 179 179 190 181 181 178 180 177 179 177 172 171 170 165 157 149
260 280 327 289 307 125 142 164 167 145 103 93 129 129 140 175 178 187 190 183 181 179 180 179 179 177 176 177 176 176 172 169
267 332 268 298 288 103 73 56 137 141 131 167 136 144 198 181 169 187 190 189 185 182 182 179 176 177 179 182 184 188 193 193
254 280 292 335 336 33 94 106 143 156 156 157 159 148 165 180 185 200 197 195 189 182 180 181 180 180 182 187 192 197 202 206
209 248 286 307 30 341 97 97 92 118 148 152 164 180 179 181 189 205 203 197 190 181 181 181 177 178 183 198 207 208 215 221
264 269 281 278 7 3 48 71 136 143 153 161 174 179 176 183 182 199 208 198 191 183 181 179 168 173 180 193 206 209 218 224
262 270 274 228 314 357 359 6 52 167 172 167 172 171 180 186 208 226 204 201 192 187 182 176 176 176 182 195 192 196 213 222
263 260 250 207 144 242 297 327 34 139 161 173 177 175 168 178 198 212 207 198 190 190 187 191 187 190 206 197 199 214 207 212
270 273 290 242 231 213 269 292 308 159 170 177 180 182 153 148 150 180 201 210 200 203 203 223 238 213 222 212 213 207 212 213
292 302 266 314 312 228 247 257 274 284 191 190 190 202 220 170 169 182 181 182 197 202 208 222 215 209 200 200 198 207 221 207
286 321 279 157 268 261 256 246 262 259 258 196 195 202 208 224 209 179 184 178 181 194 206 216 210 195 199 198 205 207 214 210
304 212 246 172 263 261 258 250 255 264 250 207 205 218 225 231 215 227 207 181 180 188 193 199 191 194 185 203 189 193 204 224
260 283 238 254 242 247 239 241 245 267 236 210 218 233 230 224 221 223 223 214 198 192 186 188 191 193 196 191 177 195 204 215
252 243 327 297 283 245 242 258 249 239 217 224 228 237 229 231 226 218 218 218 204 193 190 188 196 194 203 203 195 212 227 216
271 293 75 296 282 259 250 257 261 247 236 231 236 240 237 231 232 226 219 216 215 205 199 202 205 207 221 199 198 190 206 191
255 334 338 7 321 297 291 256 292 285 289 281 271 260 245 242 234 234 217 213 213 210 207 212 217 212 194 190 197 202 209 199
273 49 283 71 277 293 293 326 322 314 306 300 294 292 264 250 237 233 218 214 209 210 213 216 215 214 200 192 201 207 206 195
Wind_Speed_850mb
7 7 9 9 9 11 42 59 21 21 12 17 16 16 10 19 31 50 45 42 46 48 46 44 42 41 38 36 35 34 33 31
7 10 16 9 19 43 35 23 12 42 13 15 24 22 8 16 23 43 43 43 47 49 45 41 39 39 38 34 31 29 28 27
5 12 10 12 31 44 11 18 31 21 16 14 14 17 20 30 33 43 43 42 44 45 44 40 37 36 35 33 28 24 22 21
6 10 13 16 39 10 26 39 22 17 23 16 13 42 38 40 31 47 45 44 44 43 41 41 38 36 34 32 28 23 20 17
7 10 16 11 26 10 35 32 17 53 12 10 30 47 32 30 32 42 40 42 44 44 44 41 40 38 33 31 28 23 19 17
4 3 13 20 7 16 23 15 53 47 15 17 69 49 19 40 42 43 37 39 42 44 41 40 40 39 37 34 31 27 22 19
9 4 12 47 13 8 35 49 20 20 53 78 76 48 64 54 56 50 44 48 48 42 40 39 38 38 34 32 29 28 25 23
16 10 13 31 14 35 8 31 30 50 54 70 69 48 61 63 69 63 59 59 52 49 46 43 37 31 27 24 27 25 24 24
42 58 31 17 17 30 5 9 27 54 83 84 75 63 71 74 66 37 65 65 60 51 48 43 36 31 32 27 26 21 23 22
56 56 18 8 10 13 15 9 8 32 51 75 72 60 75 78 62 59 66 69 51 53 51 49 31 38 28 24 21 20 20 24
70 58 25 10 8 6 22 19 13 30 64 59 53 50 47 45 37 72 72 61 55 60 58 38 19 40 21 26 33 23 24 24
27 14 13 9 10 7 18 29 21 7 49 54 53 50 41 33 34 45 61 52 58 48 55 35 38 39 31 32 31 32 28 28
11 5 4 16 16 9 27 28 33 30 27 34 34 37 44 22 30 34 43 43 53 56 55 47 45 50 44 36 41 46 26 24
14 10 16 9 23 25 38 22 27 37 35 39 32 31 33 41 22 33 35 53 49 54 59 50 51 40 35 38 36 37 24 25
22 12 12 12 22 30 52 37 36 39 43 44 38 36 40 38 52 42 37 40 52 50 58 50 47 42 31 22 24 25 24 22
14 25 4 24 37 19 25 28 38 40 45 53 47 43 50 52 57 62 53 44 45 48 55 57 48 39 29 21 24 20 19 20
12 13 5 8 11 15 39 24 24 30 38 51 53 50 53 56 66 65 64 62 59 62 57 63 59 46 32 31 28 25 23 21
13 13 3 14 14 15 14 22 49 44 42 54 61 60 61 63 59 69 72 71 67 67 67 62 58 52 33 32 34 25 21 19
14 11 7 3 12 7 13 11 31 38 48 56 60 67 63 72 74 70 81 78 73 70 69 61 54 50 40 46 45 45 37 32
7 8 6 6 10 11 10 19 15 53 66 67 68 69 86 72 76 77 82 80 74 68 64 65 61 56 54 59 58 48 45 40
Wind_Direction_850mb
90 114 172 215 252 85 151 148 167 127 144 143 162 178 116 169 164 168 171 175 175 179 173 166 159 158 156 152 148 143 137 136
92 237 247 231 284 285 165 222 193 145 116 125 154 149 22 180 167 173 175 179 179 180 179 172 165 162 161 159 156 149 143 138
329 270 284 266 279 269 95 126 159 144 148 133 121 152 166 157 168 177 183 182 181 181 179 176 174 169 166 166 163 154 147 140
267 286 285 288 293 304 116 149 162 107 120 113 115 154 162 166 179 179 190 181 181 178 180 177 179 177 172 171 170 165 157 149
260 280 327 289 307 125 142 164 167 145 103 93 129 129 140 175 178 187 190 183 181 179 180 179 179 177 176 177 176 176 172 169
267 332 268 298 288 103 73 56 137 141 131 167 136 144 198 181 169 187 190 189 185 182 182 179 176 177 179 182 184 188 193 193
254 280 292 335 336 33 94 106 143 156 156 157 159 148 165 180 185 200 197 195 189 182 180 181 180 180 182 187 192 197 202 206
209 248 286 307 30 341 97 97 92 118 148 152 164 180 179 181 189 205 203 197 190 181 181 181 177 178 183 198 207 208 215 221
264 269 281 278 7 3 48 71 136 143 153 161 174 179 176 183 182 199 208 198 191 183 181 179 168 173 180 193 206 209 218 224
262 270 274 228 314 357 359 6 52 167 172 167 172 171 180 186 208 226 204 201 192 187 182 176 176 176 182 195 192 196 213 222
263 260 250 207 144 242 297 327 34 139 161 173 177 175 168 178 198 212 207 198 190 190 187 191 187 190 206 197 199 214 207 212
270 273 290 242 231 213 269 292 308 159 170 177 180 182 153 148 150 180 201 210 200 203 203 223 238 213 222 212 213 207 212 213
292 302 266 314 312 228 247 257 274 284 191 190 190 202 220 170 169 182 181 182 197 202 208 222 215 209 200 200 198 207 221 207
286 321 279 157 268 261 256 246 262 259 258 196 195 202 208 224 209 179 184 178 181 194 206 216 210 195 199 198 205 207 214 210
304 212 246 172 263 261 258 250 255 264 250 207 205 218 225 231 215 227 207 181 180 188 193 199 191 194 185 203 189 193 204 224
260 283 238 254 242 247 239 241 245 267 236 210 218 233 230 224 221 223 223 214 198 192 186 188 191 193 196 191 177 195 204 215
252 243 327 297 283 245 242 258 249 239 217 224 228 237 229 231 226 218 218 218 204 193 190 188 196 194 203 203 195 212 227 216
271 293 75 296 282 259 250 257 261 247 236 231 236 240 237 231 232 226 219 216 215 205 199 202 205 207 221 199 198 190 206 191
255 334 338 7 321 297 291 256 292 285 289 281 271 260 245 242 234 234 217 213 213 210 207 212 217 212 194 190 197 202 209 199
273 49 283 71 277 293 293 326 322 314 306 300 294 292 264 250 237 233 218 214 209 210 213 216 215 214 200 192 201 207 206 195